Theta_e
358 358 361 356 355 355 358 357 356 367 362 356 355 353 357 357 349 345 344 346 340 344 344 344 361 365 359 362 358 354 356 362 361 361 364 364 369 357 352 356 355 355 355 355 357 357 358 361 363 362 362 361 359 360 362 362 363 363 362 362 364 365 366 363 360 359 358 356 353 351 350 348 348 347
364 361 359 359 358 361 357 356 357 364 366 359 359 358 360 362 353 352 346 347 348 347 348 345 346 366 364 355 358 357 359 362 365 359 360 362 363 350 353 356 356 355 354 354 354 355 357 357 357 355 354 354 355 357 360 361 363 363 363 363 363 363 364 362 359 358 358 356 354 352 351 350 349 348
361 364 361 359 357 360 360 356 355 360 362 363 359 357 358 356 360 357 353 348 353 350 346 347 348 353 357 354 356 354 358 357 358 359 365 366 358 352 362 356 357 355 354 352 350 350 351 352 351 350 351 352 354 356 359 361 361 362 362 362 362 362 361 359 357 357 357 356 355 353 351 350 349 348
364 366 364 365 361 360 361 362 359 358 359 359 357 360 360 362 361 362 357 354 352 356 352 353 355 352 357 361 356 359 358 356 357 367 364 367 359 362 358 355 355 356 353 352 350 348 347 346 346 349 351 351 353 356 359 359 358 359 360 360 359 357 356 354 355 355 354 353 353 353 353 352 350 348
362 367 365 364 364 365 362 360 358 357 359 360 358 360 360 358 361 362 361 352 353 361 361 356 355 358 358 355 361 361 359 358 357 360 364 365 360 357 355 355 355 354 353 349 348 347 345 344 344 347 350 351 353 354 358 355 354 356 354 352 349 347 348 349 349 350 350 349 349 350 351 351 349 347
362 364 365 363 362 364 363 359 356 356 355 355 355 356 357 356 358 366 361 360 355 353 360 356 359 356 356 356 363 363 360 358 363 360 361 360 358 355 356 356 352 351 352 348 346 346 344 343 343 345 347 349 351 352 351 349 347 346 345 342 339 339 339 340 343 344 344 344 345 346 347 349 348 347
363 361 362 360 360 355 357 358 359 357 356 357 358 357 356 355 356 357 360 359 356 354 355 359 355 356 358 358 359 361 359 366 362 363 360 355 353 354 354 354 349 349 348 348 347 344 343 343 343 343 344 346 346 347 345 341 339 338 336 334 336 337 337 337 338 341 341 342 343 345 346 347 347 347
365 362 362 361 358 358 358 359 359 356 355 355 358 360 361 361 361 364 363 363 362 360 356 361 360 360 359 360 361 361 360 357 358 357 358 356 356 354 352 354 351 349 346 350 346 344 342 342 341 340 341 341 339 338 337 336 336 335 335 334 334 333 333 332 333 336 337 337 338 339 341 344 345 344
366 365 364 362 361 360 357 359 357 356 359 361 361 361 361 360 361 362 363 363 361 360 357 358 363 363 362 362 363 364 358 357 358 361 361 354 355 357 354 352 348 343 340 343 341 340 342 342 341 340 340 340 338 337 336 336 336 335 333 332 332 331 331 330 329 330 331 332 333 331 333 336 338 339
361 359 360 359 360 358 356 358 359 363 362 359 354 355 357 361 363 364 363 363 363 361 361 362 359 363 355 356 360 362 360 355 353 355 359 360 360 361 355 353 350 349 348 347 347 343 343 340 335 339 341 339 337 337 337 336 336 334 332 328 328 329 329 329 329 329 328 328 329 330 330 332 333 334
359 360 358 359 359 359 358 356 357 359 361 359 359 362 360 359 359 359 360 360 358 359 357 355 354 352 353 355 352 356 359 357 355 354 353 355 355 358 357 358 357 355 351 349 346 348 347 344 349 340 335 336 336 336 336 336 336 336 332 328 327 327 326 325 326 327 327 327 326 326 325 327 332 334
357 355 353 352 355 358 360 359 359 358 355 358 356 359 360 361 359 357 355 355 354 355 353 350 349 351 356 357 356 354 359 355 355 352 350 350 352 355 366 360 356 358 357 355 352 348 347 347 344 336 336 337 337 337 338 338 340 339 337 333 332 331 328 326 326 326 325 324 323 323 322 321 324 329
357 355 353 351 351 359 360 359 364 368 368 359 359 360 362 362 358 358 358 356 357 356 354 355 356 352 352 354 356 347 348 349 348 349 346 350 350 352 352 359 360 359 356 356 353 353 355 353 353 353 356 359 357 358 342 348 348 343 337 334 334 333 332 329 328 327 326 324 323 322 322 321 322 325
355 355 354 354 356 364 359 360 369 367 364 366 360 360 363 364 363 360 359 359 358 356 353 351 349 345 343 342 348 343 344 349 351 347 351 349 347 354 353 359 360 360 356 354 359 357 359 356 356 358 358 359 366 361 367 367 363 351 339 336 333 333 332 330 329 328 327 325 323 322 321 321 323 322
356 355 354 355 362 370 370 368 369 367 364 364 361 358 360 365 365 359 356 357 357 356 353 351 348 345 347 345 348 347 343 343 345 347 353 349 351 353 352 350 360 366 365 364 360 361 365 366 361 362 360 359 361 363 364 352 345 343 337 334 333 333 332 331 331 330 327 325 324 323 321 321 321 321
357 355 353 352 351 352 356 361 370 370 365 359 359 358 357 357 357 358 363 360 357 357 354 353 352 351 350 351 352 346 345 349 351 354 356 360 356 355 353 353 352 364 367 363 362 359 365 364 361 361 360 361 361 357 354 339 343 340 338 337 335 333 332 332 332 332 331 329 328 327 325 324 323 323
357 359 358 355 354 351 355 358 356 369 372 362 355 357 357 357 354 344 342 347 363 359 360 355 354 353 354 354 355 354 356 361 358 360 357 362 361 360 357 356 355 364 375 368 362 358 362 364 361 360 361 359 360 360 348 345 343 341 338 336 335 334 333 332 332 331 330 329 328 327 325 324 323 322
355 359 359 358 359 359 361 369 365 365 363 362 371 370 369 368 367 356 344 341 341 350 358 359 357 360 361 358 362 367 368 362 360 358 356 361 359 359 359 363 364 368 368 363 362 359 360 363 359 358 361 362 367 370 354 343 341 339 336 336 334 333 332 331 331 330 329 329 327 325 323 322 321 321
356 359 357 361 360 362 366 357 362 365 364 363 361 364 363 363 365 366 367 364 360 358 356 357 359 362 365 369 371 367 366 362 364 361 362 363 362 363 363 362 363 363 367 366 361 352 353 355 352 354 355 358 361 363 349 344 341 336 335 335 335 333 331 331 330 329 329 328 326 325 323 322 320 319
361 359 360 366 363 366 357 341 337 347 361 364 362 361 361 360 357 355 359 346 346 363 362 364 361 359 358 343 359 360 355 359 362 360 358 359 362 360 356 354 356 355 360 361 355 349 349 355 349 352 356 358 360 363 364 348 346 339 335 335 334 332 330 329 329 329 328 327 327 325 323 320 318 317
351 352 357 363 364 358 348 331 324 331 353 361 360 359 359 359 358 355 354 345 340 333 329 327 329 329 329 331 332 332 332 347 352 356 354 354 357 355 351 351 351 352 356 357 358 352 350 355 355 353 356 361 361 360 362 364 345 341 335 332 331 330 330 329 327 327 327 327 326 326 325 321 319 318
357 358 358 352 351 350 344 321 322 326 350 357 357 357 356 356 356 356 358 358 358 346 339 335 332 330 331 331 329 328 327 327 339 355 352 355 355 352 351 348 351 351 354 357 360 356 352 354 357 355 357 360 362 361 362 363 359 346 339 327 327 328 329 329 327 327 327 326 326 325 322 320 318 331
351 355 351 349 339 340 330 315 318 322 344 355 356 357 355 353 353 355 356 357 358 360 360 363 373 369 352 361 366 366 347 338 348 354 355 355 353 351 351 351 351 348 351 358 363 356 355 356 356 358 353 352 357 360 361 361 364 364 366 367 368 333 328 329 326 325 324 325 326 325 322 319 318 342
352 355 353 343 324 320 317 315 313 315 319 343 353 355 354 353 353 352 352 356 356 357 357 357 359 359 361 363 361 365 365 364 366 363 361 358 355 354 353 352 351 348 350 359 362 355 355 356 353 360 355 348 347 355 359 358 360 363 364 364 361 348 337 330 328 324 322 323 323 323 322 319 319 345
348 347 349 346 329 318 316 313 310 310 314 323 345 351 353 350 344 338 350 353 355 355 357 357 357 359 361 360 362 362 360 364 365 366 365 362 359 357 353 351 351 351 354 362 354 357 350 353 353 355 354 354 352 351 356 359 361 360 363 364 363 364 365 363 356 366 335 321 319 319 319 319 315 332
347 348 345 344 332 317 315 312 309 308 311 316 339 352 320 317 321 345 348 349 351 354 354 357 353 355 357 354 357 357 357 358 362 359 359 363 359 360 359 354 351 350 352 361 348 361 355 352 356 353 352 351 349 353 352 355 359 361 364 362 361 364 364 362 362 365 364 366 369 345 337 320 318 317
338 339 340 340 333 315 308 306 307 310 311 324 340 312 313 318 319 331 349 351 352 351 351 351 351 352 352 351 351 351 353 357 362 358 359 360 360 360 360 360 359 356 358 359 365 362 356 353 355 351 348 351 348 349 351 350 353 360 359 359 361 362 363 362 362 360 363 362 365 341 327 321 318 318
331 333 334 334 313 307 304 306 309 312 319 333 315 312 315 319 328 345 353 351 350 350 348 349 349 349 349 349 349 350 352 350 354 355 355 357 359 357 358 359 358 358 359 360 361 362 364 354 353 357 353 351 347 346 346 352 354 355 354 359 360 360 361 360 361 361 361 364 364 365 363 362 352 335
330 328 315 310 310 312 310 310 315 319 323 319 319 318 319 338 344 347 347 346 344 343 343 342 344 344 346 347 348 351 350 351 352 353 353 355 354 356 357 357 359 360 359 359 361 367 360 357 351 353 354 355 350 351 350 348 350 351 353 352 351 356 359 361 361 361 361 362 361 361 361 361 364 362
322 317 314 313 313 318 325 341 337 336 335 330 326 326 336 337 334 337 340 339 338 340 339 337 336 337 339 339 342 345 347 346 343 344 346 346 346 348 348 347 350 352 352 355 356 365 368 364 357 354 354 353 354 353 352 350 349 352 352 352 353 355 358 360 361 363 363 361 359 359 363 363 363 362
332 338 336 329 323 321 322 324 328 332 334 340 331 332 329 327 331 337 335 334 339 339 333 330 330 333 336 339 341 339 338 338 341 344 343 341 342 342 343 342 342 342 345 351 354 354 356 363 368 360 354 353 353 354 355 356 351 350 353 355 354 349 355 358 359 362 367 365 362 360 364 364 362 360
330 336 338 331 339 337 335 336 333 331 331 330 328 329 327 326 332 332 330 332 335 332 330 330 332 333 335 332 331 332 333 335 338 341 339 338 338 339 340 340 340 340 341 342 344 349 355 356 364 366 361 357 353 354 355 354 351 351 352 354 354 355 356 355 355 358 365 366 361 359 362 363 361 363
330 334 331 331 328 326 325 325 325 325 325 327 327 327 328 327 329 328 327 328 327 326 327 328 328 328 328 328 330 330 331 333 333 336 335 336 336 338 338 336 336 336 335 337 340 342 347 352 355 357 358 357 359 358 353 348 349 351 351 352 353 353 355 356 356 359 363 358 357 357 358 361 361 362
326 332 327 327 326 325 325 324 324 323 323 326 325 325 324 326 327 326 327 328 325 326 326 327 326 326 325 326 327 327 327 328 328 329 328 332 333 332 331 331 332 333 335 334 335 337 341 344 347 348 349 351 349 354 357 354 351 352 352 353 353 352 354 357 358 359 360 357 355 352 353 355 359 362
329 326 325 325 326 324 323 324 323 323 324 324 324 324 324 325 326 325 326 326 324 326 325 326 326 324 325 325 325 325 325 325 325 327 329 329 330 328 329 328 329 330 331 330 330 333 335 335 336 334 337 339 338 344 345 358 349 348 350 350 352 353 353 354 353 356 357 358 357 353 351 351 352 358
327 325 324 324 324 324 324 323 324 323 323 323 323 323 322 322 323 324 324 322 323 324 324 323 322 323 324 324 324 323 322 322 324 325 325 325 326 326 326 326 327 327 328 328 328 331 330 329 328 327 327 328 329 329 332 345 348 348 343 345 349 351 350 352 354 354 352 349 352 353 348 348 351 355
324 325 325 325 325 324 322 322 323 323 323 323 323 322 322 322 323 323 325 324 323 323 323 322 322 322 322 323 321 321 322 322 322 322 322 323 323 324 324 324 325 326 325 326 327 327 327 325 326 326 326 325 324 324 328 340 339 340 345 338 340 341 343 345 345 342 343 346 349 350 348 349 350 352
323 323 322 322 323 322 322 322 322 321 322 321 321 321 321 321 322 323 325 323 321 320 321 320 320 320 320 320 319 320 320 321 321 321 321 321 321 321 321 321 321 322 322 322 323 323 324 325 326 326 325 323 324 324 324 329 330 329 329 334 332 333 335 336 336 338 342 344 345 348 350 348 350 352
323 322 322 321 322 323 321 321 320 321 321 321 320 320 321 320 320 321 320 320 321 320 318 319 319 320 319 320 319 320 319 319 318 319 318 319 319 319 319 319 319 319 318 318 320 322 323 323 323 325 325 323 320 321 322 320 320 326 326 320 329 331 332 334 334 338 342 343 345 349 350 353 348 338
323 322 322 321 321 321 321 322 321 321 320 320 319 320 319 320 319 319 319 319 318 318 318 319 319 317 319 319 318 319 318 318 317 317 317 317 317 317 317 318 317 316 316 317 317 318 319 320 322 323 321 320 321 322 323 325 326 329 331 330 319 328 337 337 336 337 336 338 339 340 340 343 343 348
321 321 321 321 322 321 320 320 320 320 320 319 320 319 319 319 317 317 317 316 317 318 318 318 318 319 318 318 318 317 316 316 316 317 317 316 315 316 315 314 315 316 315 315 316 316 318 320 323 319 324 323 325 326 323 322 321 324 326 329 321 320 319 321 336 334 332 337 337 337 337 339 341 342
320 320 320 321 320 321 319 319 318 317 318 318 317 318 318 318 317 317 316 317 318 318 316 316 316 316 316 316 316 315 315 314 314 314 315 315 314 314 313 314 313 313 313 313 313 315 318 321 321 321 321 322 321 319 317 318 318 320 323 326 328 322 321 319 317 318 335 334 331 329 330 332 334 333
320 319 319 319 319 318 318 318 317 317 316 316 316 317 316 316 316 316 316 316 316 315 315 314 315 315 315 315 315 315 314 314 315 314 313 312 312 311 311 312 312 312 312 312 314 316 317 318 319 318 319 319 319 319 316 317 319 319 321 323 324 327 328 323 322 320 320 320 320 326 333 332 330 328
320 319 318 317 317 317 316 316 315 315 316 315 315 315 314 314 314 314 315 314 314 313 315 314 314 314 314 314 314 313 313 312 311 310 310 310 311 311 311 311 310 310 310 311 311 313 315 315 317 317 316 315 316 316 316 317 317 319 319 320 322 323 324 326 328 324 322 322 320 318 318 319 323 326
318 318 318 317 316 316 314 314 314 314 314 314 313 313 313 312 312 312 313 313 313 312 312 312 312 313 312 311 311 309 310 308 308 310 310 311 310 310 311 310 309 309 309 310 309 311 313 313 314 315 315 315 316 316 316 316 316 317 317 318 319 320 322 324 324 325 326 326 323 320 319 320 321 320
Wind_Speed
4 4 2 2 2 3 2 3 3 4 2 1 2 1 1 1 3 4 4 3 5 5 8 4 4 6 2 6 6 7 7 3 6 5 5 5 5 8 6 7 5 7 8 8 8 7 7 7 7 8 9 10 10 11 11 11 11 11 11 11 12 12 12 12 12 12 12 12 12 12 11 10 11 11
3 3 4 2 3 1 3 4 3 6 4 1 3 3 3 5 4 2 4 4 4 5 6 7 2 6 7 7 6 5 3 13 8 5 6 6 6 7 11 14 11 8 10 10 9 8 7 7 7 8 9 10 10 10 11 11 11 11 11 11 11 11 11 11 11 11 11 12 12 12 11 12 12 11
3 3 3 3 3 3 5 5 5 3 1 2 2 3 1 3 2 3 3 5 3 4 7 7 9 7 6 8 6 7 6 3 1 7 5 6 5 8 12 17 14 10 12 12 10 9 9 8 8 8 9 9 9 9 10 11 11 11 11 11 11 10 9 9 10 10 10 11 12 12 12 12 12 12
2 2 3 3 3 3 4 4 5 4 4 4 4 3 2 2 3 3 3 4 6 5 6 7 7 11 8 7 8 7 6 6 4 5 5 7 5 9 10 9 13 14 14 13 10 10 9 9 8 8 9 9 10 10 9 10 11 11 11 11 10 9 9 9 9 9 8 9 10 11 12 13 13 12
4 4 4 4 4 4 5 5 5 5 4 4 5 4 3 4 4 3 3 6 7 5 6 7 7 8 8 9 6 7 7 7 7 7 7 7 8 9 7 6 10 15 14 13 11 11 11 10 9 9 9 10 11 11 10 11 11 10 10 9 9 9 8 8 8 8 9 10 11 11 12 12 12 12
5 4 5 5 6 5 6 6 6 6 6 5 5 4 5 5 3 4 2 3 6 7 5 6 6 9 8 8 6 7 7 8 6 8 8 8 8 7 6 6 7 14 12 13 13 14 12 10 10 10 10 11 12 12 12 11 12 11 10 9 9 8 8 9 10 10 10 10 10 11 12 12 12 12
5 6 5 6 6 6 6 5 5 6 6 5 5 5 5 6 5 3 4 4 6 7 6 6 7 6 7 7 7 8 8 6 7 6 8 8 8 8 8 7 9 9 14 15 15 15 12 11 11 12 12 12 13 13 13 12 12 11 10 9 9 8 8 9 10 11 11 11 11 11 11 12 12 12
5 5 5 5 5 5 4 5 5 6 6 5 4 5 4 5 5 5 4 5 5 5 7 5 6 6 7 7 8 7 7 9 7 7 7 8 9 9 9 8 10 8 14 15 17 14 11 12 13 12 13 14 13 14 13 13 12 11 10 10 9 9 9 9 9 11 11 10 10 11 11 12 12 11
5 5 6 5 5 5 5 5 6 5 5 4 4 4 4 4 5 4 4 5 5 6 7 7 6 6 7 7 7 6 7 7 6 6 7 9 9 8 9 9 9 7 13 16 16 13 12 15 14 12 14 15 15 14 14 13 12 12 11 10 10 10 9 10 10 10 10 11 10 10 10 11 11 11
7 7 7 6 6 5 6 5 5 4 4 5 6 6 5 5 4 5 6 5 6 7 6 6 7 6 7 6 6 6 6 7 7 7 7 8 7 6 8 9 9 8 9 9 8 7 11 15 15 14 15 15 16 15 14 14 13 13 12 12 11 10 9 10 10 10 11 11 11 11 11 11 11 11
8 7 7 7 7 6 6 6 6 6 6 6 6 4 5 5 6 6 6 6 6 7 7 7 7 7 6 5 6 6 6 6 7 7 7 8 7 6 6 8 8 9 9 12 11 13 15 11 7 10 13 14 16 16 15 15 16 14 13 13 12 10 10 10 10 11 11 11 11 11 11 11 11 11
8 8 8 9 9 8 7 7 7 6 6 5 6 5 4 5 5 6 6 6 6 7 7 7 7 7 7 6 7 6 5 6 6 7 7 7 7 7 6 7 8 7 9 10 10 9 5 8 11 14 14 15 16 17 15 17 16 15 13 13 13 11 11 11 11 11 11 11 12 12 12 12 12 12
8 9 9 8 8 6 7 5 2 7 6 5 5 4 4 5 5 6 6 6 6 6 7 7 6 7 7 7 7 7 6 6 6 6 7 7 6 6 7 7 7 8 10 10 11 10 9 11 11 12 12 10 11 12 17 14 16 14 13 13 12 12 11 10 10 11 11 12 12 12 12 13 12 12
8 8 9 9 2 8 5 4 5 6 8 6 7 5 5 6 5 6 6 6 7 7 7 8 8 8 9 9 7 7 8 7 7 7 6 7 8 8 8 7 7 7 10 11 10 11 10 11 13 12 11 11 9 9 6 4 4 10 13 12 11 11 11 11 10 10 11 11 12 12 12 13 13 13
8 8 9 9 7 10 9 8 10 11 10 9 9 9 9 7 6 7 7 7 7 7 8 8 9 9 8 9 8 8 10 9 8 8 6 8 8 8 9 10 7 5 7 7 10 10 9 10 12 11 11 11 11 10 8 2 7 11 13 12 11 11 11 11 10 10 11 11 12 12 13 13 13 13
8 9 9 9 9 8 8 8 8 9 10 11 10 11 11 11 11 10 8 7 7 8 8 8 9 9 9 9 8 9 9 8 8 8 8 7 8 9 9 9 10 6 7 9 10 12 9 9 10 11 11 10 10 10 1 9 8 11 11 10 10 10 10 11 11 11 11 12 12 13 13 13 13 14
8 7 7 8 8 8 5 5 8 8 9 12 14 13 12 12 12 13 13 12 10 8 8 9 9 9 9 10 8 9 9 8 9 8 9 7 8 9 10 10 11 9 7 9 11 13 11 9 10 11 9 10 10 10 10 10 12 12 11 10 11 11 11 11 11 12 12 12 12 13 13 13 13 14
8 7 8 8 7 7 6 8 9 9 10 8 8 7 7 9 12 14 15 15 16 14 11 10 10 8 9 9 8 9 8 9 9 10 10 9 9 10 11 12 12 12 10 11 10 12 12 10 11 11 10 10 8 7 8 8 8 11 12 13 13 13 12 12 12 12 12 12 12 13 13 13 14 14
10 9 8 8 8 4 7 7 9 5 3 4 7 7 10 11 11 10 12 11 10 9 11 12 12 9 8 10 9 8 8 8 8 9 10 10 11 11 12 11 12 12 10 12 11 12 11 9 10 10 9 8 8 8 8 8 9 11 14 14 14 14 14 13 13 13 13 13 13 13 13 14 14 14
6 7 9 7 5 8 7 10 12 9 6 6 7 9 10 10 11 12 12 11 9 8 10 10 11 9 8 7 7 7 6 6 8 10 11 11 9 10 10 12 12 12 11 11 11 11 12 9 12 12 11 10 8 8 9 11 12 14 14 13 13 14 15 14 14 14 14 13 14 14 13 14 14 14
12 9 9 10 4 5 8 11 12 12 10 5 7 8 10 10 10 11 11 6 1 6 10 10 9 9 12 13 13 14 14 10 6 6 8 10 9 10 12 13 13 12 11 10 9 11 13 11 11 11 10 9 9 10 10 9 10 5 7 11 14 15 16 16 16 15 14 15 15 15 14 14 14 11
3 6 13 9 8 8 6 8 9 11 9 6 6 8 10 10 10 8 6 7 8 7 6 7 9 9 10 12 14 13 12 13 6 5 8 11 10 11 11 12 11 13 12 10 10 11 11 11 9 10 11 10 9 9 9 8 9 9 7 11 13 14 15 16 16 15 16 16 16 16 15 15 10 5
2 1 8 14 9 7 5 5 6 8 8 6 7 8 9 10 10 7 9 9 9 8 9 8 7 8 7 8 7 6 9 9 6 6 7 8 7 10 10 11 11 11 10 7 8 8 10 10 11 8 9 9 9 11 10 9 8 9 9 7 5 12 15 15 15 16 17 17 17 16 16 14 8 6
1 3 3 8 10 7 7 7 6 5 5 5 6 6 7 7 8 7 10 9 9 10 10 10 10 11 11 10 10 9 7 5 3 5 5 6 6 8 10 11 11 12 11 8 9 7 9 10 11 10 9 10 11 10 10 10 9 9 9 9 11 9 8 11 11 16 17 17 18 18 18 13 11 6
3 3 2 4 10 10 8 7 7 6 5 6 5 5 5 6 6 7 8 9 11 10 10 9 9 6 3 6 8 8 9 5 5 4 4 4 6 7 9 11 11 12 12 8 6 5 5 7 10 10 11 9 11 13 12 10 10 10 9 9 9 7 8 8 8 6 9 16 18 19 17 12 15 12
2 1 2 4 6 9 9 9 9 9 8 6 6 5 6 9 9 6 7 8 8 7 8 8 8 8 7 7 8 7 6 7 8 9 8 3 6 6 7 9 12 12 14 11 12 5 4 7 5 7 9 10 12 11 13 12 11 9 8 10 11 10 9 9 7 7 8 8 5 6 10 14 16 18
4 4 5 6 11 11 11 10 9 8 10 9 2 8 9 8 9 7 5 6 7 7 7 8 8 7 7 6 6 6 7 6 5 8 8 7 7 7 8 9 11 13 13 14 11 7 5 8 7 9 10 9 10 11 11 11 11 10 11 10 10 10 10 10 8 9 8 9 8 7 8 12 16 17
6 5 5 5 9 11 11 11 9 7 6 5 10 11 11 11 7 5 5 5 6 6 7 7 7 7 7 7 7 7 8 8 9 9 9 7 6 8 9 9 10 11 12 13 11 8 3 6 8 6 9 8 11 12 12 10 10 11 12 12 11 11 11 9 8 8 9 8 9 7 7 6 4 6
4 3 7 9 10 11 11 12 13 8 8 10 9 10 12 12 6 3 5 6 5 5 6 6 7 7 7 7 7 8 9 10 9 8 7 7 8 9 9 9 9 9 9 9 9 2 2 4 7 9 8 8 10 11 11 12 9 10 9 11 12 10 10 10 9 8 8 8 8 8 8 8 7 5
7 7 8 10 11 10 8 7 5 3 3 6 11 12 12 6 6 5 5 6 5 5 6 6 7 7 7 8 8 9 8 8 8 8 9 9 9 9 10 10 10 9 10 10 10 5 3 6 6 7 8 9 9 9 11 12 12 11 10 11 11 11 9 9 8 7 7 6 8 8 8 8 9 8
3 5 5 5 7 9 12 13 11 9 10 6 5 3 6 6 5 5 5 6 5 6 7 7 7 7 7 8 7 7 7 7 7 7 8 9 9 10 10 10 11 11 10 10 9 8 6 5 3 5 6 6 7 8 10 10 11 12 11 11 10 12 10 9 10 9 5 5 6 8 9 8 8 9
8 8 6 8 7 4 6 6 4 2 1 3 5 4 5 6 4 6 7 6 6 7 7 7 7 7 8 8 8 8 8 8 8 8 9 9 10 10 10 10 10 10 10 9 9 9 7 5 2 3 6 7 8 8 8 9 11 11 12 11 10 11 11 11 11 10 7 6 7 8 8 8 9 8
8 7 4 3 3 3 5 3 3 3 3 4 5 4 5 6 5 6 6 5 6 7 7 7 7 7 8 8 8 8 8 8 8 8 9 9 9 9 9 10 11 10 11 11 10 9 8 8 8 8 8 9 10 11 10 11 10 10 10 11 10 11 11 10 9 8 8 9 9 11 11 10 9 9
5 6 4 3 3 4 4 3 4 4 5 5 5 5 5 5 5 6 5 5 7 7 7 6 7 7 8 8 8 8 8 8 8 9 9 9 9 9 10 10 10 10 10 11 11 10 9 9 9 9 9 10 10 10 10 11 12 10 10 10 11 11 11 10 9 9 7 7 9 12 12 11 10 9
5 4 4 3 3 3 5 4 5 5 5 5 5 5 6 5 5 6 6 7 7 7 7 7 7 8 7 7 8 8 8 9 9 9 8 8 8 9 9 10 10 10 10 11 11 10 10 10 10 11 10 9 10 8 10 12 11 11 10 10 9 9 10 9 9 9 8 8 7 11 13 11 11 10
6 4 3 3 3 4 4 4 4 5 5 5 5 6 6 6 5 6 6 8 8 7 7 7 8 7 8 8 8 8 9 9 9 8 9 8 9 9 9 9 10 10 10 10 10 10 10 10 10 11 11 11 11 11 10 10 12 9 11 11 10 10 11 11 10 10 11 11 9 9 11 13 12 10
4 4 3 3 3 3 4 5 5 5 5 5 5 5 6 6 6 6 7 8 7 7 7 8 8 8 8 8 9 9 9 9 9 9 9 9 9 9 10 9 9 10 10 10 10 10 10 11 10 10 11 11 12 12 11 7 7 7 10 12 13 12 11 11 11 14 13 12 12 11 12 12 13 13
4 3 3 4 4 4 4 5 5 5 5 5 6 6 6 6 7 7 6 7 7 7 8 8 8 8 8 9 9 9 9 9 9 9 9 9 9 9 10 10 11 11 11 11 11 11 10 10 10 10 10 11 12 12 13 11 12 12 7 9 13 15 14 14 14 13 13 12 12 12 12 13 13 12
4 3 3 4 4 4 4 4 5 5 6 6 6 6 6 6 7 7 7 7 6 7 8 8 8 8 9 9 9 9 9 9 9 9 9 9 9 10 10 10 11 10 11 12 11 11 10 10 10 10 9 10 11 12 13 15 16 16 17 15 12 14 14 13 14 14 14 13 13 12 12 11 14 18
4 3 4 4 4 4 4 4 4 5 5 5 6 6 7 6 7 7 7 7 8 8 8 8 8 8 8 8 9 9 9 10 9 9 10 10 10 10 10 10 11 12 12 12 12 11 10 10 9 9 11 12 13 14 14 15 15 15 16 17 17 14 11 12 14 14 15 14 14 15 16 14 14 11
4 4 4 5 5 5 5 5 5 5 6 6 6 6 6 6 7 7 7 8 8 8 8 8 8 8 8 9 9 9 10 10 10 10 10 11 11 11 12 13 12 11 12 13 12 12 11 10 12 14 13 13 13 13 13 13 13 12 13 13 15 16 15 12 12 14 15 14 14 15 16 15 15 14
5 5 5 5 6 6 6 6 6 6 7 7 7 7 7 7 7 8 8 8 7 7 8 8 8 9 9 9 10 10 10 10 11 10 11 11 12 12 12 11 12 12 12 13 13 13 13 13 14 13 12 12 12 12 13 14 15 14 13 13 13 14 17 16 15 11 11 11 13 15 15 15 14 15
6 6 6 6 5 6 6 7 6 6 7 7 7 7 8 8 8 8 7 7 8 8 8 8 9 9 10 10 10 10 11 11 11 11 12 13 13 13 12 12 12 13 13 14 14 15 14 13 12 13 13 12 12 12 15 15 15 15 15 14 14 14 15 18 19 20 20 22 21 17 14 14 14 16
7 7 7 6 6 6 7 7 7 7 8 8 8 8 8 8 8 8 8 8 8 8 9 9 9 10 10 10 11 11 11 11 12 13 13 12 12 13 14 14 14 14 14 14 14 14 14 14 13 12 13 13 13 13 15 16 15 15 15 15 15 15 17 16 16 17 16 17 19 22 24 24 22 24
7 7 7 7 7 7 8 9 8 8 8 8 8 9 9 9 10 10 10 9 9 9 9 9 9 10 10 11 11 11 11 12 12 12 12 13 13 14 14 14 14 14 14 14 15 15 14 13 13 13 13 13 13 13 15 15 16 16 16 16 17 16 15 15 15 16 16 15 14 15 17 20 21 20
Wind_Direction
294 279 186 257 304 290 297 295 296 106 301 300 147 276 195 276 306 311 312 310 300 307 309 299 174 199 201 260 270 273 263 47 158 261 293 286 291 167 258 283 262 263 261 264 269 275 277 279 271 283 285 286 285 285 282 279 273 263 256 255 255 251 248 249 251 251 249 248 246 244 237 238 249 258
278 285 295 311 280 291 257 253 274 124 218 220 238 218 186 184 261 304 291 303 272 290 287 286 254 179 212 271 272 283 330 149 224 322 301 296 300 15 323 283 270 244 249 249 251 257 271 276 274 278 285 286 283 284 282 281 277 272 264 258 259 257 250 247 248 249 249 247 246 244 237 238 247 252
269 292 287 299 280 301 319 317 293 328 330 248 255 271 273 277 285 274 282 282 307 319 294 302 302 316 307 289 313 298 320 191 316 311 303 292 332 301 277 270 257 226 234 238 233 246 254 261 269 277 282 283 283 277 281 285 284 278 271 266 263 259 255 250 248 250 250 249 248 245 241 239 241 247
249 239 259 266 277 298 295 294 307 285 251 256 265 276 297 276 247 255 267 270 283 282 290 294 303 293 310 315 293 316 296 306 224 285 304 294 275 269 277 239 226 216 224 228 232 236 243 246 262 273 276 280 281 276 271 277 281 281 283 282 275 265 257 253 253 253 254 258 257 253 248 247 246 242
254 248 253 262 278 285 279 275 271 273 275 266 247 231 249 254 245 210 200 275 289 296 303 301 292 308 314 299 313 301 310 307 309 316 296 302 288 287 292 300 200 212 210 224 226 231 236 242 251 261 263 267 273 274 271 276 275 275 277 279 278 275 267 262 258 258 259 260 262 262 257 248 241 241
249 230 233 246 255 248 249 265 271 270 278 282 288 252 229 237 232 83 38 297 276 284 290 291 313 297 290 294 316 313 306 298 302 301 302 289 291 294 308 296 283 200 203 219 226 230 234 239 242 245 253 258 265 271 272 271 274 278 276 270 268 264 259 258 255 254 253 254 257 259 258 253 245 242
233 236 233 239 238 238 237 235 254 276 285 295 297 299 305 307 300 255 246 268 281 292 291 298 291 299 311 304 302 300 294 297 284 288 292 301 307 306 297 301 305 178 198 212 226 231 232 241 240 240 248 258 260 263 268 270 274 276 274 268 261 253 250 248 247 249 250 252 254 256 256 256 248 243
233 236 245 249 244 261 268 259 272 276 268 265 266 265 265 269 273 280 265 257 271 289 293 288 291 296 298 295 296 290 293 298 316 307 302 293 294 304 305 303 302 162 199 216 230 236 237 242 243 242 249 253 254 255 260 268 270 269 266 262 254 246 240 239 240 244 246 248 250 251 254 254 253 246
247 246 254 246 240 234 246 246 250 255 250 247 254 272 274 269 272 276 283 282 278 284 286 288 286 293 283 284 287 293 304 308 295 306 303 303 300 299 303 303 306 310 217 233 245 252 244 243 243 245 248 247 247 250 253 259 263 263 265 260 249 242 235 233 235 236 240 242 244 246 247 250 253 252
232 234 229 238 243 248 241 255 257 262 279 281 267 264 268 273 275 269 265 266 265 272 276 282 289 276 291 297 294 293 289 298 310 304 297 295 299 296 301 308 311 304 310 322 317 261 240 238 241 247 245 245 244 246 248 250 254 256 256 257 252 240 235 233 234 235 236 237 239 239 240 242 243 244
245 238 239 231 240 245 245 247 241 233 235 247 265 258 259 258 258 264 269 267 265 264 272 279 281 283 284 293 299 304 304 291 281 286 289 288 290 296 300 301 299 301 311 314 289 270 279 296 279 250 246 244 244 245 243 244 248 251 248 252 252 240 229 228 230 232 233 234 234 234 235 237 238 238
251 247 241 239 228 222 227 228 233 242 252 252 253 253 259 268 275 281 283 288 291 290 286 288 293 299 295 281 276 276 267 275 267 266 282 289 297 292 284 286 302 311 305 296 302 301 285 268 258 257 255 249 248 246 241 241 245 239 241 243 247 245 232 227 227 228 228 231 232 232 231 231 233 235
240 250 260 256 253 242 210 204 321 332 355 323 287 288 285 277 279 277 281 279 278 279 278 277 279 275 273 272 265 265 257 272 298 298 282 278 286 300 305 305 306 302 300 299 302 307 314 303 302 311 311 299 268 244 231 239 231 228 230 233 239 245 245 239 236 232 229 230 231 233 232 230 230 230
251 253 258 267 274 103 137 174 191 221 245 249 266 278 278 280 279 279 277 278 272 273 276 275 279 284 285 291 290 302 305 300 286 289 312 319 317 311 301 294 287 297 300 300 297 296 297 301 304 302 300 298 284 303 282 274 171 199 214 222 231 243 254 257 247 241 238 235 235 236 235 234 232 230
262 259 258 261 213 171 183 195 199 209 216 218 233 246 252 255 257 259 265 270 282 283 279 281 280 281 289 292 301 301 300 302 316 322 321 308 309 302 302 300 297 267 292 297 295 288 293 297 296 296 296 296 298 291 285 175 154 174 196 212 227 243 255 262 259 249 244 240 238 237 237 237 236 235
255 256 259 258 259 250 240 234 206 213 216 222 227 231 237 244 242 244 245 250 255 260 269 277 280 286 289 298 300 297 302 316 315 313 309 300 295 296 293 294 294 305 296 293 295 292 291 289 291 292 287 284 286 296 90 173 203 205 216 226 238 245 251 256 262 260 250 245 242 239 237 237 237 237
262 269 266 272 282 286 282 218 235 213 218 218 222 221 228 235 240 240 239 242 248 263 268 273 279 276 281 285 293 306 312 312 297 298 293 296 296 295 294 289 294 298 309 296 286 287 291 292 286 281 282 295 298 296 287 247 223 221 220 223 233 242 245 249 255 257 255 250 245 242 240 238 237 236
264 258 264 263 265 263 287 27 17 347 309 275 226 221 234 241 234 230 233 233 236 241 255 266 276 280 280 281 285 290 299 294 290 293 292 294 294 293 292 296 290 288 288 281 286 285 285 285 285 284 287 290 282 282 295 293 240 224 222 224 230 235 241 246 248 252 253 253 250 248 245 242 238 236
264 271 270 273 270 300 52 27 16 9 306 275 283 257 247 246 251 240 230 223 223 225 229 239 249 261 269 270 274 279 285 298 309 307 306 303 294 287 283 280 278 281 273 269 278 279 284 287 285 284 289 289 291 298 300 289 247 229 227 228 230 233 240 244 245 248 250 249 250 249 247 244 242 240
288 303 302 300 324 33 53 17 6 11 339 320 304 304 295 287 281 276 273 258 263 242 231 224 238 253 291 331 311 314 313 310 302 301 297 295 294 290 287 282 288 283 286 284 288 285 290 298 298 301 302 303 299 307 305 299 274 240 230 232 233 237 241 242 244 245 246 248 248 247 244 245 247 245
29 11 346 357 32 69 37 9 5 358 349 319 302 297 299 295 296 298 305 317 343 343 317 319 325 315 303 302 304 300 296 287 300 302 290 282 285 289 293 293 291 291 295 294 299 296 293 297 300 299 299 303 304 298 294 300 303 308 236 228 233 237 238 239 241 242 243 247 247 246 242 240 239 242
22 33 48 41 21 32 32 7 360 355 333 321 307 301 300 303 301 314 355 333 338 350 303 279 273 273 275 271 269 270 268 277 287 280 277 290 305 301 299 297 303 302 302 303 328 308 299 309 309 307 312 302 294 297 304 314 312 302 246 225 238 242 240 241 240 240 242 244 247 245 243 241 229 219
346 294 66 58 48 40 13 8 2 358 347 321 308 302 299 296 305 343 344 331 314 319 315 300 289 282 256 249 249 249 254 257 242 232 258 284 283 286 289 294 306 308 301 334 333 309 326 329 319 328 320 308 306 308 310 311 308 309 312 303 253 230 240 246 241 244 245 247 247 246 244 238 196 237
299 29 72 70 46 30 20 359 345 334 315 315 317 316 297 302 306 333 319 306 310 312 306 299 293 291 309 317 303 296 279 255 242 219 238 242 261 281 291 298 298 293 293 306 33 1 329 329 319 328 308 299 305 310 308 307 313 315 311 304 304 300 244 228 245 242 248 249 247 247 244 224 192 228
49 37 23 57 37 11 356 342 334 306 308 289 297 297 309 324 322 308 305 309 314 296 292 291 296 308 301 284 286 302 306 304 306 300 249 278 304 295 291 291 290 286 288 304 61 61 305 301 304 314 313 310 299 305 309 307 303 300 303 304 303 299 307 304 305 293 228 234 244 247 248 225 202 217
131 337 3 61 33 3 342 334 325 322 308 289 280 354 345 313 317 312 303 296 294 298 300 301 301 309 313 304 303 304 307 342 349 332 325 284 246 269 268 271 283 290 294 304 330 323 302 296 293 307 305 310 303 302 303 303 299 298 314 315 308 305 306 306 303 297 300 301 291 227 233 221 212 216
35 43 20 25 9 341 325 317 314 312 308 286 319 330 307 298 289 276 272 294 305 310 316 316 319 321 325 331 328 337 347 346 340 323 316 309 301 284 283 283 282 286 293 299 295 281 268 287 305 303 306 301 295 297 294 296 304 319 310 306 310 310 305 306 302 302 299 300 304 297 236 217 216 220
35 14 14 352 322 311 307 302 298 299 288 298 305 301 297 287 272 249 289 332 347 337 327 330 333 332 335 330 333 335 336 331 323 317 314 318 312 303 308 304 298 296 293 291 289 282 243 268 293 280 268 274 287 289 290 288 287 297 302 304 305 305 304 303 299 304 301 299 303 298 299 295 223 216
20 340 307 300 300 301 303 297 290 255 235 258 285 289 289 284 279 327 352 356 339 329 327 322 325 319 323 326 323 330 322 313 307 308 316 319 312 306 302 301 291 289 291 292 288 248 261 243 268 280 271 261 271 277 285 286 287 288 288 300 299 301 302 295 294 299 304 306 302 295 290 294 286 233
284 297 294 288 277 276 265 284 297 325 308 281 272 270 270 310 352 358 358 351 344 338 342 339 328 327 325 324 324 311 304 312 319 319 319 321 316 320 318 314 308 303 299 299 303 295 212 192 222 253 268 277 276 282 289 293 288 291 294 288 287 289 282 295 297 291 284 287 292 292 286 281 278 282
310 226 245 313 297 281 283 273 270 270 261 250 280 323 4 347 338 0 8 346 341 2 351 336 329 326 324 319 310 320 323 313 317 326 321 317 323 324 319 311 305 307 305 304 306 314 329 303 231 235 270 276 275 272 286 289 289 297 292 290 294 289 297 296 294 289 284 274 286 287 282 278 282 283
318 304 271 240 251 263 260 261 253 198 351 350 327 351 358 339 352 17 344 340 20 8 346 330 330 322 327 326 332 324 321 327 331 338 332 330 319 316 315 308 305 309 310 312 313 320 319 326 323 244 240 269 286 290 289 282 284 285 286 286 283 284 289 296 300 299 295 295 292 287 280 282 284 283
307 295 278 287 297 323 312 314 322 335 331 5 340 337 10 329 355 6 345 358 8 355 336 333 328 330 332 329 324 328 327 334 334 335 331 320 312 313 309 303 306 312 317 319 324 324 329 334 324 312 296 288 271 271 278 285 284 286 290 289 291 291 294 297 301 305 314 306 302 300 294 284 276 269
283 289 309 312 331 332 315 341 332 347 339 352 346 342 344 329 357 356 341 11 0 339 324 320 324 332 326 323 330 329 329 327 328 327 320 317 321 314 309 308 309 314 316 317 319 323 328 328 324 312 301 288 281 269 263 268 276 283 281 288 291 295 300 307 306 306 308 303 299 296 293 295 290 281
289 296 309 324 335 339 326 349 350 340 331 354 342 340 338 339 351 355 357 9 345 325 323 329 332 326 323 324 325 326 326 323 319 318 319 320 316 311 314 313 314 317 317 318 318 322 327 328 325 317 308 302 295 276 238 241 272 277 290 292 297 299 305 307 307 303 301 292 285 287 293 286 281 285
292 306 317 321 332 343 326 348 346 346 337 342 344 337 339 336 342 348 354 355 325 323 325 336 326 322 327 324 327 327 320 317 313 318 322 319 318 317 313 309 309 311 314 311 313 322 327 322 322 315 310 308 303 302 300 222 227 284 303 308 312 312 309 309 306 302 294 285 273 268 277 281 282 278
305 310 309 322 341 345 340 337 343 341 335 334 333 339 335 329 337 343 346 331 316 321 335 324 325 330 325 328 327 318 317 320 319 321 317 320 319 315 311 312 316 317 313 317 322 320 322 316 314 307 307 308 303 300 298 324 346 1 334 319 312 306 311 306 300 293 286 284 278 269 266 272 278 279
296 314 323 326 334 334 333 329 339 332 338 338 330 329 330 334 332 329 330 319 331 330 332 332 327 324 324 327 318 317 317 316 316 316 318 318 318 320 323 322 320 320 322 321 320 315 313 308 308 315 313 310 312 312 312 320 310 304 319 312 303 301 301 294 291 289 291 287 283 279 278 279 278 282
287 299 318 316 322 316 320 329 328 322 331 330 329 327 332 330 328 331 325 321 331 335 329 320 318 320 317 311 312 312 313 316 318 317 318 317 319 319 318 316 314 318 318 310 309 308 311 312 315 316 326 330 320 312 313 302 295 297 297 286 278 283 276 280 283 288 289 294 294 293 291 287 284 279
301 301 307 313 309 320 311 316 317 322 318 325 330 330 323 325 334 323 315 326 330 321 309 304 308 310 306 312 312 312 309 311 314 316 316 317 316 315 311 315 316 311 306 306 309 312 310 308 312 330 330 314 300 293 285 281 280 278 278 279 252 236 260 284 298 306 305 302 303 300 297 296 292 294
294 304 301 308 314 310 313 318 321 320 323 326 319 319 321 329 316 316 325 314 306 306 315 316 314 314 313 315 315 315 316 314 314 315 316 311 311 312 320 321 310 312 311 309 309 306 307 314 317 310 294 291 290 290 286 284 287 292 295 297 310 311 305 297 289 292 292 302 303 302 298 297 297 296
282 288 293 289 291 305 311 312 314 320 317 316 317 321 322 312 303 302 302 299 310 314 310 312 319 319 319 319 316 314 311 314 313 310 312 315 318 317 315 312 310 314 311 309 308 307 309 312 310 309 305 303 301 298 294 295 295 297 297 303 299 291 281 279 286 290 291 300 304 295 290 292 293 289
286 284 286 294 299 299 302 310 313 316 319 319 312 315 312 310 312 313 316 316 315 312 316 319 319 319 316 315 317 318 317 314 319 322 325 320 314 309 306 303 307 309 309 305 306 305 305 306 307 305 305 305 302 301 296 298 298 297 298 300 302 307 303 297 287 277 270 267 260 257 266 274 286 283
302 294 285 291 300 307 307 311 319 319 314 313 315 314 314 318 313 310 313 319 320 318 323 322 323 321 322 324 326 325 323 325 325 318 309 305 303 304 306 308 308 309 306 303 304 305 306 304 302 306 306 304 304 299 298 302 300 303 305 304 303 302 300 302 299 292 277 254 251 255 255 252 250 259
329 328 326 313 305 303 302 307 310 313 313 311 310 311 317 318 318 318 316 316 315 318 316 314 312 311 317 319 318 315 317 316 310 305 307 307 307 306 303 303 304 306 307 307 304 301 300 302 305 303 296 296 301 301 301 300 300 302 301 301 300 299 299 301 302 302 303 303 297 294 291 289 284 275